Weather History for Oujda, Morocco

Change the Weather History Date:

Thursday, October 10, 2013

  Actual Average Record
Temperature  
Mean Temperature 72 °F -  
Max Temperature 80 °F 73 °F 89 °F (2012)
Min Temperature 64 °F 51 °F 46 °F (1996)
Cooling Degree Days 7    
Growing Degree Days 22 (Base 50)    
Moisture  
Dew Point 63 °F    
Average Humidity 74    
Maximum Humidity 100    
Minimum Humidity 41    
Precipitation  
Precipitation 0.00 in 0.05 in - ()
Sea Level Pressure  
Sea Level Pressure 29.95 in    
Wind  
Wind Speed 5 mph ()    
Max Wind Speed 16 mph    
Max Gust Speed -    
Visibility 6.8 miles    
Events      
Averages and records for this station are not official NWS values.
T = Trace of Precipitation, MM = Missing Value Source: Averaged Metar Reports

Daily Weather History Graph

Daily Weather History Graph

Search for Another Location

Airport:

Trip Planner

Search our weather history database for the weather conditions in past years. The results will help you decide how hot, cold, wet, or windy it might be!

Date:

Astronomy

Oct. 10, 2013 Rise Set
Actual Time 7:09 AM WEST 6:39 PM WEST
Civil Twilight 6:44 AM WEST 7:04 PM WEST
Nautical Twilight 6:14 AM WEST 7:33 PM WEST
Astronomical Twilight 5:45 AM WEST 8:03 PM WEST
Moon 12:38 PM WEST (10/10) 11:10 PM WEST (10/10)
Length of Visible Light 12h 20m
Length of Day
11h 30m
Waxing Crescent, 33% of the Moon is Illuminated
Oct 10
Waxing Crescent
Oct 12
First Quarter
Oct 19
Full
Oct 27
Last Quarter
Nov 3
New

Hourly Weather History & Observations

Time (WEST) Temp. Dew Point Humidity Pressure Visibility Wind Dir Wind Speed Gust Speed Precip Events Conditions
12:00 AM 66.2 °F 62.6 °F 88% 30.01 in 6.2 mi North 6.9 mph - N/A   Scattered Clouds
1:00 AM 66 °F 63 °F 88% 29.96 in 9 mi NNE 4.6 mph - -   Scattered Clouds
1:00 AM 66.2 °F 62.6 °F 88% 30.01 in 6.2 mi NNE 4.6 mph - N/A   Scattered Clouds
4:00 AM 65 °F 64 °F 93% 29.94 in 9 mi Calm Calm - -   Scattered Clouds
4:00 AM 64.4 °F 64.4 °F 100% 29.98 in 6.2 mi Calm Calm - N/A   Scattered Clouds
7:00 AM 64.4 °F 62.6 °F 94% 29.98 in 6.2 mi Calm Calm - N/A   Mostly Cloudy
9:00 AM 66.2 °F 64.4 °F 94% 30.01 in 6.2 mi Calm Calm - N/A   Mostly Cloudy
10:00 AM 69 °F 63 °F 77% 29.95 in 6 mi Calm Calm - -   Mostly Cloudy
10:00 AM 68.0 °F 62.6 °F 83% 30.01 in 6.2 mi Calm Calm - N/A   Mostly Cloudy
11:00 AM 73.4 °F 60.8 °F 65% 30.01 in 6.2 mi Variable 2.3 mph - N/A   Scattered Clouds
12:00 PM 77.0 °F 60.8 °F 57% 29.98 in 6.2 mi Variable 3.5 mph - N/A   Scattered Clouds
1:00 PM 80 °F 60 °F 41% 29.89 in 9 mi NNW 4.6 mph - -   Partly Cloudy
1:00 PM 78.8 °F 60.8 °F 54% 29.98 in 6.2 mi NNW 4.6 mph - N/A   Scattered Clouds
3:00 PM 78.8 °F 62.6 °F 57% 29.92 in 6.2 mi North 13.8 mph - N/A   Scattered Clouds
4:00 PM 78 °F 62 °F 48% 29.83 in 9 mi North 13.8 mph - -   Partly Cloudy
4:00 PM 78.8 °F 62.6 °F 57% 29.92 in 6.2 mi North 13.8 mph - N/A   Scattered Clouds
5:00 PM 77.0 °F 62.6 °F 61% 29.92 in 6.2 mi North 15.0 mph - N/A   Scattered Clouds
6:00 PM 73.4 °F 62.6 °F 69% 29.92 in 6.2 mi North 15.0 mph - N/A   Scattered Clouds
7:00 PM 70 °F 64 °F 74% 29.88 in 9 mi North 16.1 mph - -   Scattered Clouds
9:00 PM 68.0 °F 64.4 °F 88% 29.98 in 6.2 mi North 5.8 mph - N/A   Partly Cloudy
10:00 PM 69 °F 63 °F 76% 29.93 in 6 mi NNW 10.4 mph - -   Partly Cloudy
10:00 PM 69.8 °F 62.6 °F 78% 29.98 in 6.2 mi NNW 10.4 mph - N/A   Partly Cloudy